When you browse on this site, cookies collect data to enhance your experience and personalize the content and advertising you see.
Visit our Privacy Policy to learn more. By continuing to use the site, you agree to this use of cookies and data.
  • In United Kingdom
  • List of Countries
  • For 7 days
  • Water Temperature
  • Satellite Maps
  • Weather Map
  • Weather Widgets
  • user-avatar
    Login

    Hourly Weather Karachi

    Today, 17 February, Sunday

    Time Temperature Precipitation Wind Pressure Humidity
    00:00 +24°C° 0 mm 2 mps 760 mmHg 44%
    01:00 +23°C° 0 mm 2 mps 760 mmHg 46%
    02:00 +23°C° 0 mm 2 mps 759 mmHg 48%
    03:00 +23°C° 0 mm 2 mps 759 mmHg 51%
    04:00 +21°C° 0 mm 2 mps 759 mmHg 53%
    05:00 +21°C° 0 mm 2 mps 759 mmHg 53%
    06:00 +23°C° 0 mm 2 mps 759 mmHg 53%
    07:00 +23°C° 0 mm 1 mps 759 mmHg 53%
    08:00 +24°C° 0 mm 2 mps 759 mmHg 48%
    09:00 +25°C° 0 mm 3 mps 760 mmHg 42%
    10:00 +27°C° 0 mm 3 mps 760 mmHg 36%
    11:00 +27°C° 0 mm 4 mps 759 mmHg 33%
    12:00 +28°C° 0 mm 4 mps 759 mmHg 30%
    13:00 +29°C° 0 mm 5 mps 758 mmHg 27%
    14:00 +29°C° 0 mm 4 mps 758 mmHg 28%
    15:00 +28°C° 0 mm 4 mps 757 mmHg 29%
    16:00 +28°C° 0 mm 4 mps 757 mmHg 30%
    17:00 +27°C° 0 mm 4 mps 757 mmHg 37%
    18:00 +26°C° 0 mm 4 mps 757 mmHg 45%
    19:00 +25°C° 0 mm 4 mps 757 mmHg 52%
    20:00 +25°C° 0 mm 4 mps 757 mmHg 55%
    21:00 +23°C° 0 mm 4 mps 757 mmHg 58%
    22:00 +23°C° 0 mm 4 mps 757 mmHg 61%
    23:00 +23°C° 0 mm 5 mps 757 mmHg 62%

    Tomorrow, 18 February, Monday

    Time Temperature Precipitation Wind Pressure Humidity
    00:00 +23°C° 0 mm 5 mps 757 mmHg 64%
    01:00 +23°C° 0 mm 5 mps 757 mmHg 65%
    02:00 +23°C° 0.1 mm 5 mps 756 mmHg 65%
    03:00 +23°C° 0.1 mm 5 mps 756 mmHg 65%
    04:00 +22°C° 0.1 mm 4 mps 756 mmHg 65%
    05:00 +22°C° 0 mm 4 mps 756 mmHg 65%
    06:00 +22°C° 0 mm 4 mps 756 mmHg 66%
    07:00 +22°C° 0 mm 4 mps 757 mmHg 66%
    08:00 +25°C° 0 mm 5 mps 757 mmHg 63%
    09:00 +26°C° 0 mm 5 mps 757 mmHg 61%
    10:00 +27°C° 0 mm 6 mps 757 mmHg 59%
    11:00 +27°C° 0 mm 6 mps 757 mmHg 56%
    12:00 +28°C° 0 mm 6 mps 756 mmHg 54%
    13:00 +28°C° 0 mm 7 mps 756 mmHg 52%
    14:00 +28°C° 0 mm 7 mps 755 mmHg 54%
    15:00 +27°C° 0 mm 6 mps 755 mmHg 56%
    16:00 +27°C° 0 mm 6 mps 754 mmHg 58%
    17:00 +26°C° 0 mm 6 mps 754 mmHg 63%
    18:00 +26°C° 0 mm 5 mps 755 mmHg 68%
    19:00 +25°C° 0 mm 5 mps 755 mmHg 73%
    20:00 +25°C° 0 mm 5 mps 755 mmHg 75%
    21:00 +25°C° 0 mm 5 mps 755 mmHg 77%
    22:00 +25°C° 0 mm 5 mps 755 mmHg 79%
    23:00 +25°C° 0 mm 5 mps 755 mmHg 80%

    Day after tomorrow, 19 February, Tuesday

    Time Temperature Precipitation Wind Pressure Humidity
    00:00 +23°C° 0 mm 5 mps 754 mmHg 82%
    01:00 +23°C° 0 mm 5 mps 754 mmHg 83%
    02:00 +23°C° 0 mm 5 mps 754 mmHg 84%
    03:00 +23°C° 0 mm 4 mps 754 mmHg 84%
    04:00 +23°C° 0 mm 4 mps 754 mmHg 85%
    05:00 +23°C° 0 mm 4 mps 755 mmHg 84%
    06:00 +23°C° 0 mm 4 mps 755 mmHg 83%
    07:00 +23°C° 0 mm 4 mps 756 mmHg 82%
    08:00 +25°C° 0 mm 4 mps 756 mmHg 75%
    09:00 +27°C° 0 mm 5 mps 757 mmHg 68%
    10:00 +28°C° 0 mm 5 mps 757 mmHg 62%
    11:00 +28°C° 0 mm 6 mps 756 mmHg 60%
    12:00 +28°C° 0 mm 6 mps 756 mmHg 58%
    13:00 +29°C° 0 mm 6 mps 755 mmHg 56%
    14:00 +29°C° 0 mm 6 mps 755 mmHg 57%
    15:00 +28°C° 0 mm 5 mps 755 mmHg 58%
    16:00 +28°C° 0 mm 5 mps 755 mmHg 59%
    17:00 +27°C° 0 mm 4 mps 756 mmHg 63%
    18:00 +27°C° 0 mm 4 mps 756 mmHg 68%
    19:00 +26°C° 0 mm 3 mps 757 mmHg 72%
    20:00 +26°C° 0 mm 3 mps 757 mmHg 74%
    21:00 +25°C° 0 mm 2 mps 757 mmHg 76%
    22:00 +25°C° 0 mm 2 mps 758 mmHg 79%
    23:00 +25°C° 0 mm 2 mps 757 mmHg 80%

    20 February, Wednesday

    Time Temperature Precipitation Wind Pressure Humidity
    00:00 +25°C° 0 mm 2 mps 757 mmHg 82%
    01:00 +25°C° 0 mm 2 mps 757 mmHg 84%
    02:00 +24°C° 0 mm 2 mps 756 mmHg 85%
    03:00 +24°C° 0 mm 2 mps 756 mmHg 85%
    04:00 +24°C° 0 mm 2 mps 756 mmHg 86%
    05:00 +25°C° 0.1 mm 2 mps 757 mmHg 85%
    06:00 +25°C° 0.1 mm 2 mps 757 mmHg 83%
    07:00 +25°C° 0.1 mm 2 mps 758 mmHg 82%
    08:00 +25°C° 0.1 mm 3 mps 758 mmHg 79%
    09:00 +26°C° 0.1 mm 3 mps 759 mmHg 75%
    10:00 +27°C° 0.1 mm 4 mps 759 mmHg 72%
    11:00 +27°C° 0 mm 4 mps 759 mmHg 68%
    12:00 +28°C° 0 mm 5 mps 758 mmHg 64%
    13:00 +28°C° 0 mm 5 mps 757 mmHg 60%
    14:00 +28°C° 0 mm 5 mps 757 mmHg 61%
    15:00 +28°C° 0 mm 6 mps 757 mmHg 63%
    16:00 +28°C° 0 mm 6 mps 756 mmHg 64%
    17:00 +27°C° 0 mm 5 mps 757 mmHg 66%
    18:00 +26°C° 0 mm 5 mps 757 mmHg 68%
    19:00 +26°C° 0 mm 5 mps 758 mmHg 70%
    20:00 +26°C° 0 mm 4 mps 758 mmHg 71%
    21:00 +26°C° 0 mm 4 mps 759 mmHg 72%
    22:00 +25°C° 0 mm 4 mps 759 mmHg 72%
    23:00 +25°C° 0.1 mm 3 mps 759 mmHg 73%

    21 February, Thursday

    Time Temperature Precipitation Wind Pressure Humidity
    00:00 +25°C° 0.1 mm 3 mps 758 mmHg 74%
    01:00 +25°C° 0.1 mm 3 mps 758 mmHg 75%
    02:00 +25°C° 2 mm 3 mps 758 mmHg 76%
    03:00 +24°C° 2 mm 3 mps 758 mmHg 78%
    04:00 +24°C° 2 mm 3 mps 758 mmHg 79%
    05:00 +24°C° 1.8 mm 3 mps 758 mmHg 79%
    06:00 +24°C° 1.8 mm 3 mps 759 mmHg 79%
    07:00 +24°C° 1.8 mm 3 mps 759 mmHg 79%
    08:00 +24°C° 1.1 mm 3 mps 760 mmHg 76%
    09:00 +25°C° 1.1 mm 3 mps 760 mmHg 72%
    10:00 +25°C° 1.1 mm 3 mps 760 mmHg 69%
    11:00 +26°C° 0.1 mm 3 mps 760 mmHg 66%
    12:00 +26°C° 0.1 mm 2 mps 759 mmHg 63%
    13:00 +27°C° 0.1 mm 2 mps 758 mmHg 61%
    14:00 +27°C° 0 mm 2 mps 758 mmHg 59%
    15:00 +27°C° 0 mm 2 mps 758 mmHg 57%
    16:00 +27°C° 0 mm 2 mps 758 mmHg 55%
    17:00 +27°C° 0 mm 2 mps 758 mmHg 58%
    18:00 +26°C° 0 mm 3 mps 759 mmHg 62%
    19:00 +26°C° 0 mm 3 mps 759 mmHg 65%
    20:00 +25°C° 0 mm 3 mps 759 mmHg 65%
    21:00 +25°C° 0 mm 3 mps 759 mmHg 65%
    22:00 +25°C° 0 mm 3 mps 760 mmHg 65%
    23:00 +24°C° 0 mm 3 mps 759 mmHg 65%

    22 February, Friday

    Time Temperature Precipitation Wind Pressure Humidity
    00:00 +24°C° 0 mm 3 mps 759 mmHg 64%
    01:00 +24°C° 0 mm 3 mps 759 mmHg 63%
    02:00 +22°C° 0 mm 3 mps 759 mmHg 64%
    03:00 +22°C° 0 mm 3 mps 759 mmHg 64%
    04:00 +22°C° 0 mm 3 mps 759 mmHg 65%
    05:00 +22°C° 0 mm 3 mps 759 mmHg 63%
    06:00 +23°C° 0 mm 2 mps 760 mmHg 62%
    07:00 +23°C° 0 mm 2 mps 760 mmHg 60%
    08:00 +24°C° 0 mm 2 mps 760 mmHg 54%
    09:00 +25°C° 0 mm 2 mps 760 mmHg 47%
    10:00 +26°C° 0 mm 1 mps 761 mmHg 41%
    11:00 +27°C° 0 mm 2 mps 760 mmHg 38%
    12:00 +27°C° 0 mm 2 mps 759 mmHg 35%
    13:00 +28°C° 0 mm 3 mps 759 mmHg 33%
    14:00 +28°C° 0 mm 3 mps 758 mmHg 34%
    15:00 +27°C° 0 mm 4 mps 758 mmHg 36%
    16:00 +27°C° 0 mm 4 mps 758 mmHg 37%
    17:00 +27°C° 0 mm 4 mps 758 mmHg 41%
    18:00 +26°C° 0 mm 4 mps 758 mmHg 45%
    19:00 +25°C° 0 mm 4 mps 759 mmHg 49%
    20:00 +25°C° 0 mm 4 mps 759 mmHg 49%
    21:00 +24°C° 0 mm 3 mps 759 mmHg 49%
    22:00 +24°C° 0 mm 3 mps 759 mmHg 50%
    23:00 +24°C° 0 mm 3 mps 759 mmHg 50%
    Show more